TimePDT,TemperatureF,Dew PointF,Humidity,Sea Level PressureIn,VisibilityMPH,Wind Direction,Wind SpeedMPH,Gust SpeedMPH,PrecipitationIn,Events,Conditions,WindDirDegrees,DateUTC
12:51 AM,66.9,60.1,79,29.98,10.0,Calm,Calm,-,N/A,,Mostly Cloudy,0,2012-10-06 07:51:00
1:51 AM,64.9,60.1,84,29.98,10.0,Calm,Calm,-,N/A,,Mostly Cloudy,0,2012-10-06 08:51:00
2:51 AM,64.9,59.0,81,29.97,10.0,Calm,Calm,-,N/A,,Scattered Clouds,0,2012-10-06 09:51:00
3:51 AM,64.9,59.0,81,29.95,10.0,Calm,Calm,-,N/A,,Scattered Clouds,0,2012-10-06 10:51:00
4:51 AM,64.9,57.9,78,29.95,10.0,Calm,Calm,-,N/A,,Mostly Cloudy,0,2012-10-06 11:51:00
5:51 AM,64.0,57.9,80,29.96,10.0,Calm,Calm,-,N/A,,Mostly Cloudy,0,2012-10-06 12:51:00
6:51 AM,64.0,57.9,80,29.96,9.0,Calm,Calm,-,N/A,,Mostly Cloudy,0,2012-10-06 13:51:00
7:51 AM,66.0,59.0,78,29.97,7.0,Calm,Calm,-,N/A,,Mostly Cloudy,0,2012-10-06 14:51:00
8:51 AM,68.0,59.0,73,29.99,7.0,Calm,Calm,-,N/A,,Mostly Cloudy,0,2012-10-06 15:51:00
9:51 AM,70.0,60.1,71,29.99,8.0,Calm,Calm,-,N/A,,Mostly Cloudy,0,2012-10-06 16:51:00
10:51 AM,72.0,59.0,64,29.98,10.0,SSW,4.6,-,N/A,,Mostly Cloudy,200,2012-10-06 17:51:00
11:51 AM,73.9,60.1,62,29.96,10.0,SW,5.8,-,N/A,,Mostly Cloudy,230,2012-10-06 18:51:00
12:51 PM,75.9,60.1,58,29.94,10.0,WNW,6.9,-,N/A,,Mostly Cloudy,290,2012-10-06 19:51:00
1:51 PM,77.0,60.1,56,29.93,10.0,West,6.9,-,N/A,,Mostly Cloudy,280,2012-10-06 20:51:00
2:51 PM,75.9,61.0,60,29.91,10.0,WNW,4.6,-,N/A,,Mostly Cloudy,300,2012-10-06 21:51:00
3:51 PM,75.0,63.0,66,29.91,10.0,WNW,8.1,-,N/A,,Mostly Cloudy,290,2012-10-06 22:51:00
4:51 PM,73.9,63.0,68,29.91,10.0,West,6.9,-,N/A,,Mostly Cloudy,280,2012-10-06 23:51:00
5:51 PM,73.0,64.0,73,29.91,10.0,West,6.9,-,N/A,,Mostly Cloudy,270,2012-10-07 00:51:00
6:51 PM,72.0,64.0,76,29.91,10.0,WNW,3.5,-,N/A,,Mostly Cloudy,290,2012-10-07 01:51:00
7:51 PM,71.1,64.0,78,29.92,10.0,WNW,3.5,-,N/A,,Mostly Cloudy,290,2012-10-07 02:51:00
8:51 PM,71.1,64.0,78,29.94,10.0,WNW,3.5,-,N/A,,Mostly Cloudy,300,2012-10-07 03:51:00
9:51 PM,71.1,64.0,78,29.94,10.0,Calm,Calm,-,N/A,,Scattered Clouds,0,2012-10-07 04:51:00
10:51 PM,70.0,64.0,81,29.94,10.0,Calm,Calm,-,N/A,,Scattered Clouds,0,2012-10-07 05:51:00
11:51 PM,70.0,64.0,81,29.93,10.0,Calm,Calm,-,N/A,,Partly Cloudy,0,2012-10-07 06:51:00